Flag for U.S.A. Weather past 2 weeks in Sandpoint, Idaho, U.S.A.

Now
36 °F

Sunny.


Feels Like: 29 °F
Forecast: 30 / 60 °F
Wind: 8 mph from Northeast

Location: Sandpoint Airport


UV Index: 3 (Moderate)

Visibility: 10 mi


Pressure: 29.97 "Hg

Humidity: 87%

Dew point: 32 °F

Location of SandpointLocation

Historic Weather in Sandpoint

°F

Sandpoint temperature yesterday

Maximum temperature yesterday: 50 °F (at 4:35 PM)
Minimum temperature yesterday: 34 °F (at 10:35 PM)
Average temperature yesterday: 44 °F

Past Weeks' High & Low Weather Summary

 TemperatureHumidityPressure
High70 °F (Apr 8, 3:15 PM)100% (Apr 4, 6:15 AM)30.37 "Hg (Apr 4, 6:15 AM)
Low27 °F (Apr 14, 4:55 AM)16% (Apr 13, 1:55 PM)29.70 "Hg (Apr 18, 1:55 AM)
Average45 °F68%30.00 "Hg
* Reported Apr 4 6:15 AM — Apr 19 6:15 AM, Sandpoint, Weather by CustomWeather, © 2014

Note: Actual official high and low records may vary slightly from our data, if they occured in-between our weather recording intervals... More about our weather records

Advertising

Historic Weather Conditions — Data for Previous 24 hours

 ConditionsComfort  
Time TempWeatherWind HumidityBarometerVisibility
6:15 AM
Apr 19
32 °FClear.6 mph100%29.98 "Hg10 mi
5:35 AM36 °FClear.9 mph87%29.97 "Hg10 mi
5:15 AM36 °FClear.7 mph87%29.97 "Hg10 mi
4:55 AM34 °FClear.5 mph93%29.97 "Hg10 mi
4:35 AM36 °FClear.7 mph87%29.98 "Hg10 mi
4:15 AM36 °FClear.6 mph87%29.97 "Hg10 mi
3:55 AM36 °FClear.7 mph87%29.97 "Hg10 mi
3:35 AM36 °FClear.6 mph87%29.98 "Hg10 mi
3:15 AM36 °FClear.7 mph87%29.98 "Hg10 mi
2:55 AM34 °FClear.8 mph93%29.98 "Hg10 mi
2:35 AM32 °FClear.No wind100%29.98 "Hg10 mi
2:15 AM32 °FClear.No wind100%29.98 "Hg10 mi
1:55 AM32 °FClear.No wind100%29.98 "Hg10 mi
1:35 AM32 °FClear.No wind100%29.98 "Hg10 mi
1:10 AM32 °FClear.No wind100%29.99 "Hg10 mi
12:55 AM32 °FClear.No wind100%29.99 "Hg10 mi
12:35 AM32 °FClear.No wind100%29.98 "Hg10 mi
12:15 AM32 °FClear.No wind100%29.99 "Hg10 mi
11:55 PM
Apr 18
34 °FClear.No wind100%29.99 "Hg10 mi
11:35 PM34 °FClear.No wind100%29.99 "Hg10 mi
11:15 PM34 °FClear.3 mph100%29.98 "Hg10 mi
10:55 PM34 °FClear.No wind100%29.98 "Hg10 mi
10:35 PM34 °FClear.No wind100%29.98 "Hg10 mi
10:15 PM36 °FClear.No wind100%29.97 "Hg10 mi
9:55 PM37 °FClear.No wind100%29.97 "Hg10 mi
9:15 PM41 °FOvercast.No wind81%29.98 "Hg10 mi
8:55 PM41 °FOvercast.No wind81%29.97 "Hg10 mi
8:35 PM43 °FOvercast.No wind76%29.97 "Hg10 mi
8:15 PM43 °FOvercast.3 mph71%29.96 "Hg10 mi
7:35 PM45 °FMostly cloudy.6 mph66%29.95 "Hg10 mi
7:15 PM46 °FOvercast.3 mph62%29.94 "Hg10 mi
6:35 PM50 °FMore clouds than sun.No wind54%29.94 "Hg10 mi
6:15 PM50 °FMore clouds than sun.No wind50%29.94 "Hg10 mi
5:55 PM50 °FBroken clouds.No wind43%29.94 "Hg10 mi
5:30 PM50 °FMore clouds than sun.No wind47%29.94 "Hg10 mi
5:15 PM50 °FMore clouds than sun.No wind43%29.94 "Hg10 mi
4:55 PM48 °FOvercast.No wind54%29.94 "Hg10 mi
4:35 PM50 °FMore clouds than sun.7 mph47%29.93 "Hg10 mi
4:15 PM46 °FOvercast.6 mph57%29.94 "Hg10 mi
3:55 PM46 °FOvercast.5 mph57%29.94 "Hg10 mi
3:35 PM48 °FMore clouds than sun.5 mph54%29.93 "Hg10 mi
3:15 PM46 °FMore clouds than sun.5 mph57%29.93 "Hg10 mi
2:55 PM46 °FBroken clouds.6 mph57%29.94 "Hg10 mi
1:50 PM46 °FMore clouds than sun.12 mph50%29.91 "Hg10 mi
1:35 PM46 °FOvercast.10 mph53%29.90 "Hg10 mi
1:15 PM46 °FOvercast.7 mph53%29.89 "Hg10 mi
12:50 PM46 °FDrizzle. Overcast.12 mph57%29.89 "Hg10 mi
12:35 PM45 °FOvercast.13 mph57%29.89 "Hg10 mi
12:15 PM45 °FOvercast.12 mph57%29.89 "Hg10 mi
11:55 AM46 °FOvercast.15 mph53%29.89 "Hg10 mi
11:35 AM45 °FOvercast.16 mph57%29.88 "Hg10 mi
11:15 AM45 °FOvercast.10 mph57%29.88 "Hg10 mi
10:55 AM45 °FOvercast.10 mph57%29.88 "Hg10 mi
10:35 AM43 °FMore clouds than sun.8 mph66%29.87 "Hg10 mi
10:15 AM43 °FMostly cloudy.12 mph61%29.86 "Hg10 mi
9:55 AM43 °FDrizzle. Overcast.15 mph66%29.86 "Hg10 mi
9:15 AM43 °FMore clouds than sun.12 mph66%29.84 "Hg10 mi
8:55 AM41 °FMore clouds than sun.10 mph70%29.83 "Hg10 mi
8:15 AM41 °FOvercast.12 mph70%29.83 "Hg10 mi
7:55 AM41 °FOvercast.13 mph70%29.82 "Hg10 mi
7:35 AM41 °FCloudy.14 mph76%29.81 "Hg10 mi
7:10 AM41 °FOvercast.15 mph76%29.80 "Hg10 mi
Weather by CustomWeather, © 2014

See weather overview